Time,TemperatureF,DewpointF,PressureIn,WindDirection,WindDirectionDegrees,WindSpeedMPH,WindSpeedGustMPH,Humidity,HourlyPrecipIn,Conditions,Clouds,dailyrainin,SoftwareType,DateUTC
2013-02-14 00:01:00,29.0,29.0,-100.00,NW,308,10.0,13.0,100,0.00,,,-99.99,,2013-02-14 07:01:00,
2013-02-14 00:11:00,28.0,28.0,-100.00,NW,312,11.0,15.0,100,0.01,,,-99.99,,2013-02-14 07:11:00,
2013-02-14 00:21:00,28.0,28.0,-100.00,NW,319,11.0,13.0,100,0.01,,,-99.99,,2013-02-14 07:21:00,
2013-02-14 00:31:00,27.0,27.0,-100.00,NW,313,14.0,18.0,100,0.03,,,-99.99,,2013-02-14 07:31:00,
2013-02-14 00:41:00,26.0,26.0,-100.00,NW,316,14.0,18.0,98,0.03,,,-99.99,,2013-02-14 07:41:00,
2013-02-14 00:51:00,25.0,25.0,-100.00,NW,322,21.0,30.0,99,0.06,,,-99.99,,2013-02-14 07:51:00,
2013-02-14 01:01:00,25.0,24.0,-100.00,NNW,330,17.0,30.0,99,0.01,,,-99.99,,2013-02-14 08:01:00,
2013-02-14 01:11:00,25.0,24.0,-100.00,NNW,329,16.0,25.0,99,0.01,,,-99.99,,2013-02-14 08:11:00,
2013-02-14 01:21:00,25.0,24.0,-100.00,NW,313,20.0,25.0,98,0.04,,,-99.99,,2013-02-14 08:21:00,
2013-02-14 01:31:00,24.0,24.0,-100.00,WNW,292,19.0,24.0,100,0.06,,,-99.99,,2013-02-14 08:31:00,
2013-02-14 01:43:00,24.0,24.0,-100.00,WNW,284,18.0,23.0,100,0.16,,,-99.99,,2013-02-14 08:43:00,
2013-02-14 01:52:00,24.0,24.0,-100.00,West,275,17.0,22.0,100,0.16,,,-99.99,,2013-02-14 08:52:00,
2013-02-14 02:01:00,24.0,24.0,-100.00,West,271,17.0,21.0,100,0.11,,,-99.99,,2013-02-14 09:01:00,
2013-02-14 02:11:00,24.0,24.0,-100.00,West,274,17.0,24.0,99,0.11,,,-99.99,,2013-02-14 09:11:00,
2013-02-14 02:21:00,24.0,24.0,-100.00,West,274,20.0,24.0,99,0.07,,,-99.99,,2013-02-14 09:21:00,
2013-02-14 02:31:00,24.0,24.0,-100.00,WNW,288,21.0,26.0,99,0.10,,,-99.99,,2013-02-14 09:31:00,
2013-02-14 02:41:00,24.0,24.0,-100.00,WNW,285,17.0,23.0,100,0.13,,,-99.99,,2013-02-14 09:41:00,
2013-02-14 02:51:00,23.0,23.0,-100.00,West,277,17.0,21.0,99,0.14,,,-99.99,,2013-02-14 09:51:00,
2013-02-14 03:01:00,23.0,23.0,-100.00,West,277,16.0,22.0,100,0.14,,,-99.99,,2013-02-14 10:01:00,
2013-02-14 03:11:00,23.0,23.0,-100.00,West,265,15.0,19.0,100,-99.99,,,-99.99,,2013-02-14 10:11:00,
2013-02-14 03:21:00,23.0,23.0,-100.00,West,271,17.0,21.0,99,0.04,,,-99.99,,2013-02-14 10:21:00,
2013-02-14 03:31:00,23.0,23.0,-100.00,West,260,17.0,22.0,99,0.06,,,-99.99,,2013-02-14 10:31:00,
2013-02-14 03:41:00,23.0,23.0,-100.00,West,261,17.0,23.0,99,0.07,,,-99.99,,2013-02-14 10:41:00,
2013-02-14 03:52:00,23.0,23.0,-100.00,West,267,17.0,23.0,98,0.01,,,-99.99,,2013-02-14 10:52:00,
2013-02-14 04:01:00,23.0,22.0,-100.00,West,263,20.0,26.0,97,0.01,,,-99.99,,2013-02-14 11:01:00,
2013-02-14 04:11:00,23.0,22.0,-100.00,West,268,21.0,27.0,97,0.03,,,-99.99,,2013-02-14 11:11:00,
2013-02-14 04:21:00,23.0,23.0,-100.00,West,260,19.0,25.0,98,0.06,,,-99.99,,2013-02-14 11:21:00,
2013-02-14 04:31:00,23.0,23.0,-100.00,West,260,21.0,27.0,98,0.04,,,-99.99,,2013-02-14 11:31:00,
2013-02-14 04:41:00,23.0,22.0,-100.00,WSW,258,21.0,27.0,98,0.04,,,-99.99,,2013-02-14 11:41:00,
2013-02-14 04:51:00,23.0,22.0,-100.00,WSW,256,19.0,24.0,98,0.03,,,-99.99,,2013-02-14 11:51:00,
2013-02-14 05:01:00,23.0,22.0,-100.00,WSW,256,21.0,25.0,97,0.03,,,-99.99,,2013-02-14 12:01:00,
2013-02-14 05:11:00,23.0,22.0,-100.00,West,260,20.0,26.0,97,0.03,,,-99.99,,2013-02-14 12:11:00,
2013-02-14 05:21:00,22.0,22.0,-100.00,West,264,19.0,24.0,98,0.03,,,-99.99,,2013-02-14 12:21:00,
2013-02-14 05:31:00,22.0,22.0,-100.00,West,261,19.0,24.0,97,0.01,,,-99.99,,2013-02-14 12:31:00,
2013-02-14 05:41:00,22.0,22.0,-100.00,West,263,19.0,26.0,97,0.03,,,-99.99,,2013-02-14 12:41:00,
2013-02-14 05:53:00,22.0,21.0,-100.00,West,263,18.0,24.0,96,0.00,,,-99.99,,2013-02-14 12:53:00,
2013-02-14 06:01:00,22.0,21.0,-100.00,West,265,19.0,24.0,96,0.01,,,-99.99,,2013-02-14 13:01:00,
2013-02-14 06:11:00,22.0,21.0,-100.00,West,267,18.0,22.0,95,0.01,,,-99.99,,2013-02-14 13:11:00,
2013-02-14 06:21:00,22.0,21.0,-100.00,West,267,18.0,22.0,96,0.01,,,-99.99,,2013-02-14 13:21:00,
2013-02-14 06:31:00,22.0,21.0,-100.00,West,275,21.0,24.0,96,0.03,,,-99.99,,2013-02-14 13:31:00,
2013-02-14 06:41:00,22.0,21.0,-100.00,West,271,19.0,22.0,95,0.06,,,-99.99,,2013-02-14 13:41:00,
2013-02-14 06:51:00,22.0,21.0,-100.00,West,272,17.0,21.0,96,0.04,,,-99.99,,2013-02-14 13:51:00,
2013-02-14 07:01:00,22.0,21.0,-100.00,WNW,284,13.0,17.0,97,0.01,,,-99.99,,2013-02-14 14:01:00,
2013-02-14 07:11:00,21.0,21.0,-100.00,WNW,289,11.0,13.0,98,0.00,,,-99.99,,2013-02-14 14:11:00,
2013-02-14 07:21:00,22.0,20.0,-100.00,West,274,14.0,17.0,89,0.00,,,-99.99,,2013-02-14 14:21:00,
2013-02-14 07:31:00,23.0,19.0,-100.00,West,277,15.0,21.0,84,0.00,,,-99.99,,2013-02-14 14:31:00,
2013-02-14 07:41:00,23.0,18.0,-100.00,West,272,19.0,22.0,81,0.00,,,-99.99,,2013-02-14 14:41:00,
2013-02-14 07:52:00,23.0,19.0,-100.00,West,271,20.0,26.0,85,0.00,,,-99.99,,2013-02-14 14:52:00,
2013-02-14 08:01:00,22.0,19.0,-100.00,West,272,21.0,25.0,88,0.00,,,-99.99,,2013-02-14 15:01:00,
2013-02-14 08:11:00,22.0,19.0,-100.00,West,275,19.0,23.0,89,0.00,,,-99.99,,2013-02-14 15:11:00,
2013-02-14 08:21:00,22.0,19.0,-100.00,West,267,17.0,22.0,88,0.00,,,-99.99,,2013-02-14 15:21:00,
2013-02-14 08:31:00,22.0,18.0,-100.00,West,264,17.0,24.0,84,0.01,,,-99.99,,2013-02-14 15:31:00,
2013-02-14 08:41:00,22.0,18.0,-100.00,West,263,17.0,22.0,84,0.00,,,-99.99,,2013-02-14 15:41:00,
2013-02-14 08:51:00,23.0,18.0,-100.00,West,261,16.0,21.0,81,0.00,,,-99.99,,2013-02-14 15:51:00,
2013-02-14 09:01:00,23.0,17.0,-100.00,West,261,13.0,17.0,80,0.00,,,-99.99,,2013-02-14 16:01:00,
2013-02-14 09:11:00,23.0,17.0,-100.00,West,261,12.0,16.0,78,0.00,,,-99.99,,2013-02-14 16:11:00,
2013-02-14 09:21:00,23.0,17.0,-100.00,West,261,13.0,16.0,77,0.00,,,-99.99,,2013-02-14 16:21:00,
2013-02-14 09:31:00,23.0,17.0,-100.00,West,263,12.0,16.0,76,0.00,,,-99.99,,2013-02-14 16:31:00,
2013-02-14 09:41:00,24.0,16.0,-100.00,West,268,12.0,15.0,73,0.00,,,-99.99,,2013-02-14 16:41:00,
2013-02-14 09:51:00,24.0,15.0,-100.00,West,268,13.0,18.0,66,0.00,,,-99.99,,2013-02-14 16:51:00,
2013-02-14 10:01:00,25.0,15.0,-100.00,West,274,14.0,19.0,65,0.00,,,-99.99,,2013-02-14 17:01:00,
2013-02-14 10:11:00,24.0,15.0,-100.00,WNW,284,13.0,17.0,68,0.00,,,-99.99,,2013-02-14 17:11:00,
2013-02-14 10:21:00,24.0,14.0,-100.00,WNW,284,12.0,16.0,66,0.00,,,-99.99,,2013-02-14 17:21:00,
2013-02-14 10:31:00,24.0,14.0,-100.00,West,275,15.0,19.0,64,0.00,,,-99.99,,2013-02-14 17:31:00,
2013-02-14 10:41:00,25.0,13.0,-100.00,West,271,17.0,23.0,60,0.00,,,-99.99,,2013-02-14 17:41:00,
2013-02-14 11:01:00,25.0,12.0,-100.00,West,274,14.0,19.0,58,0.00,,,-99.99,,2013-02-14 18:01:00,
2013-02-14 11:11:00,24.0,13.0,-100.00,West,272,15.0,19.0,60,0.00,,,-99.99,,2013-02-14 18:11:00,
2013-02-14 11:22:00,25.0,11.0,-100.00,West,274,14.0,17.0,55,0.00,,,-99.99,,2013-02-14 18:22:00,
2013-02-14 11:31:00,25.0,13.0,-100.00,West,277,13.0,18.0,61,0.00,,,-99.99,,2013-02-14 18:31:00,
2013-02-14 11:41:00,25.0,12.0,-100.00,WNW,282,15.0,21.0,58,0.00,,,-99.99,,2013-02-14 18:41:00,
2013-02-14 11:51:00,25.0,12.0,-100.00,WNW,288,15.0,19.0,59,0.00,,,-99.99,,2013-02-14 18:51:00,
2013-02-14 12:01:00,25.0,13.0,-100.00,WNW,287,14.0,18.0,59,0.00,,,-99.99,,2013-02-14 19:01:00,
2013-02-14 12:11:00,25.0,14.0,-100.00,WNW,285,12.0,16.0,62,0.00,,,-99.99,,2013-02-14 19:11:00,
2013-02-14 12:21:00,25.0,13.0,-100.00,WNW,291,12.0,16.0,59,0.00,,,-99.99,,2013-02-14 19:21:00,
2013-02-14 12:31:00,25.0,11.0,-100.00,WNW,296,16.0,19.0,54,0.00,,,-99.99,,2013-02-14 19:31:00,
2013-02-14 12:41:00,25.0,12.0,-100.00,WNW,299,15.0,18.0,57,0.00,,,-99.99,,2013-02-14 19:41:00,
2013-02-14 12:51:00,25.0,12.0,-100.00,WNW,299,16.0,19.0,56,0.00,,,-99.99,,2013-02-14 19:51:00,
2013-02-14 13:01:00,25.0,11.0,-100.00,WNW,298,16.0,20.0,55,0.00,,,-99.99,,2013-02-14 20:01:00,
2013-02-14 13:11:00,25.0,13.0,-100.00,WNW,298,16.0,20.0,58,0.00,,,-99.99,,2013-02-14 20:11:00,
2013-02-14 13:21:00,25.0,13.0,-100.00,WNW,296,17.0,21.0,59,0.00,,,-99.99,,2013-02-14 20:21:00,
2013-02-14 13:31:00,25.0,14.0,-100.00,WNW,298,17.0,20.0,61,0.00,,,-99.99,,2013-02-14 20:31:00,
2013-02-14 13:41:00,26.0,12.0,-100.00,WNW,299,17.0,21.0,56,0.00,,,-99.99,,2013-02-14 20:41:00,
2013-02-14 13:51:00,25.0,12.0,-100.00,NW,305,16.0,19.0,57,0.00,,,-99.99,,2013-02-14 20:51:00,
2013-02-14 14:01:00,26.0,13.0,-100.00,NW,306,16.0,20.0,60,0.00,,,-99.99,,2013-02-14 21:01:00,
2013-02-14 14:11:00,25.0,13.0,-100.00,NW,306,16.0,19.0,58,-99.99,,,-99.99,,2013-02-14 21:11:00,
2013-02-14 14:21:00,25.0,13.0,-100.00,NW,305,15.0,18.0,60,0.00,,,-99.99,,2013-02-14 21:21:00,
2013-02-14 14:31:00,25.0,14.0,-100.00,NW,306,15.0,18.0,61,0.00,,,-99.99,,2013-02-14 21:31:00,
2013-02-14 14:51:00,25.0,13.0,-100.00,WNW,302,14.0,17.0,59,0.00,,,-99.99,,2013-02-14 21:51:00,
2013-02-14 15:01:00,25.0,13.0,-100.00,NW,304,14.0,17.0,60,0.00,,,-99.99,,2013-02-14 22:01:00,
2013-02-14 15:11:00,25.0,13.0,-100.00,WNW,301,12.0,15.0,62,0.00,,,-99.99,,2013-02-14 22:11:00,
2013-02-14 15:21:00,25.0,13.0,-100.00,NW,308,13.0,15.0,61,0.00,,,-99.99,,2013-02-14 22:21:00,
2013-02-14 15:31:00,25.0,14.0,-100.00,NW,308,12.0,15.0,63,0.00,,,-99.99,,2013-02-14 22:31:00,
2013-02-14 15:41:00,24.0,14.0,-100.00,WNW,299,12.0,14.0,65,0.00,,,-99.99,,2013-02-14 22:41:00,
2013-02-14 15:51:00,25.0,14.0,-100.00,WNW,296,13.0,16.0,63,0.00,,,-99.99,,2013-02-14 22:51:00,
2013-02-14 16:01:00,24.0,15.0,-100.00,WNW,288,13.0,14.0,66,0.00,,,-99.99,,2013-02-14 23:01:00,
2013-02-14 16:11:00,24.0,14.0,-100.00,WNW,287,13.0,14.0,63,0.00,,,-99.99,,2013-02-14 23:11:00,
2013-02-14 16:21:00,25.0,14.0,-100.00,WNW,288,12.0,14.0,63,0.00,,,-99.99,,2013-02-14 23:21:00,
2013-02-14 16:31:00,24.0,13.0,-100.00,WNW,291,11.0,13.0,61,0.00,,,-99.99,,2013-02-14 23:31:00,
2013-02-14 16:41:00,25.0,12.0,-100.00,WNW,296,13.0,15.0,58,0.00,,,-99.99,,2013-02-14 23:41:00,
2013-02-14 16:52:00,24.0,12.0,-100.00,WNW,301,12.0,14.0,59,0.00,,,-99.99,,2013-02-14 23:52:00,
2013-02-14 17:01:00,24.0,12.0,-100.00,WNW,299,12.0,14.0,58,0.00,,,-99.99,,2013-02-15 00:01:00,
2013-02-14 17:11:00,24.0,12.0,-100.00,WNW,301,11.0,13.0,58,-99.99,,,-99.99,,2013-02-15 00:11:00,
2013-02-14 17:21:00,24.0,12.0,-100.00,NW,306,9.0,12.0,60,0.00,,,-99.99,,2013-02-15 00:21:00,
2013-02-14 17:31:00,24.0,13.0,-100.00,NW,311,8.0,10.0,64,0.00,,,-99.99,,2013-02-15 00:31:00,
2013-02-14 17:41:00,24.0,12.0,-100.00,NW,313,9.0,10.0,62,0.00,,,-99.99,,2013-02-15 00:41:00,
2013-02-14 17:51:00,23.0,12.0,-100.00,NW,312,7.0,9.0,62,0.00,,,-99.99,,2013-02-15 00:51:00,
2013-02-14 18:01:00,24.0,11.0,-100.00,NW,306,6.0,8.0,60,0.00,,,-99.99,,2013-02-15 01:01:00,
2013-02-14 18:21:00,23.0,12.0,-100.00,WNW,287,2.0,4.0,63,0.00,,,-99.99,,2013-02-15 01:21:00,
2013-02-14 18:31:00,23.0,13.0,-100.00,WSW,241,1.0,3.0,64,0.00,,,-99.99,,2013-02-15 01:31:00,
2013-02-14 18:41:00,22.0,14.0,-100.00,SSE,150,3.0,6.0,71,0.00,,,-99.99,,2013-02-15 01:41:00,
2013-02-14 18:51:00,22.0,13.0,-100.00,South,169,3.0,4.0,70,0.00,,,-99.99,,2013-02-15 01:51:00,
2013-02-14 19:01:00,22.0,12.0,-100.00,SSE,167,4.0,4.0,64,0.00,,,-99.99,,2013-02-15 02:01:00,
2013-02-14 19:11:00,23.0,13.0,-100.00,SSE,168,4.0,4.0,63,0.00,,,-99.99,,2013-02-15 02:11:00,
2013-02-14 19:21:00,23.0,11.0,-100.00,South,186,2.0,4.0,59,0.00,,,-99.99,,2013-02-15 02:21:00,
2013-02-14 19:31:00,23.0,13.0,-100.00,WSW,239,1.0,2.0,63,0.00,,,-99.99,,2013-02-15 02:31:00,
2013-02-14 19:41:00,23.0,12.0,-100.00,West,271,1.0,2.0,63,0.00,,,-99.99,,2013-02-15 02:41:00,
2013-02-14 19:51:00,23.0,12.0,-100.00,WNW,288,1.0,3.0,63,0.00,,,-99.99,,2013-02-15 02:51:00,
2013-02-14 20:01:00,22.0,13.0,-100.00,WNW,298,1.0,2.0,66,0.00,,,-99.99,,2013-02-15 03:01:00,
2013-02-14 20:21:00,23.0,11.0,-100.00,West,272,1.0,1.0,60,0.00,,,-99.99,,2013-02-15 03:21:00,
2013-02-14 20:31:00,23.0,12.0,-100.00,NW,312,1.0,2.0,61,0.00,,,-99.99,,2013-02-15 03:31:00,
2013-02-14 20:41:00,24.0,15.0,-100.00,NNW,332,2.0,7.0,69,0.00,,,-99.99,,2013-02-15 03:41:00,
2013-02-14 20:51:00,25.0,17.0,-100.00,NW,304,9.0,11.0,71,0.00,,,-99.99,,2013-02-15 03:51:00,
2013-02-14 21:01:00,24.0,17.0,-100.00,WNW,291,6.0,9.0,74,0.00,,,-99.99,,2013-02-15 04:01:00,
2013-02-14 21:11:00,24.0,16.0,-100.00,WNW,288,6.0,9.0,72,0.00,,,-99.99,,2013-02-15 04:11:00,
2013-02-14 21:21:00,23.0,17.0,-100.00,WNW,285,7.0,9.0,77,0.00,,,-99.99,,2013-02-15 04:21:00,
2013-02-14 21:31:00,23.0,17.0,-100.00,West,272,6.0,7.0,80,0.00,,,-99.99,,2013-02-15 04:31:00,
2013-02-14 21:51:00,22.0,19.0,-100.00,WSW,239,5.0,7.0,87,0.00,,,-99.99,,2013-02-15 04:51:00,
2013-02-14 22:01:00,22.0,20.0,-100.00,West,268,6.0,7.0,94,0.01,,,-99.99,,2013-02-15 05:01:00,
2013-02-14 22:11:00,22.0,20.0,-100.00,West,268,7.0,9.0,95,0.03,,,-99.99,,2013-02-15 05:11:00,
2013-02-14 22:22:00,22.0,21.0,-100.00,West,265,7.0,9.0,97,0.01,,,-99.99,,2013-02-15 05:22:00,
2013-02-14 22:32:00,22.0,21.0,-100.00,West,260,7.0,9.0,98,0.03,,,-99.99,,2013-02-15 05:32:00,
2013-02-14 22:41:00,22.0,21.0,-100.00,WSW,253,7.0,9.0,98,0.03,,,-99.99,,2013-02-15 05:41:00,
2013-02-14 22:52:00,22.0,21.0,-100.00,WSW,251,6.0,8.0,98,0.03,,,-99.99,,2013-02-15 05:52:00,
2013-02-14 23:01:00,22.0,21.0,-100.00,WSW,248,6.0,7.0,98,0.03,,,-99.99,,2013-02-15 06:01:00,
2013-02-14 23:11:00,22.0,22.0,-100.00,WSW,253,4.0,6.0,98,0.03,,,-99.99,,2013-02-15 06:11:00,
2013-02-14 23:21:00,22.0,22.0,-100.00,WSW,258,4.0,5.0,99,0.03,,,-99.99,,2013-02-15 06:21:00,
2013-02-14 23:31:00,22.0,22.0,-100.00,WSW,246,4.0,6.0,99,0.01,,,-99.99,,2013-02-15 06:31:00,
2013-02-14 23:41:00,22.0,22.0,-100.00,WSW,239,5.0,7.0,98,0.00,,,-99.99,,2013-02-15 06:41:00,
2013-02-14 23:51:00,23.0,22.0,-100.00,WSW,239,7.0,9.0,98,0.00,,,-99.99,,2013-02-15 06:51:00,